{"data":{"norad_id":63077,"epoch":"2026-05-25T03:43:11.174016Z","epoch_age_seconds":54906,"freshness":"FRESH","line1":"1 63077U 25037A   26145.15499044  .00002810  00000+0  24308-3 0  9994","line2":"2 63077  70.0005 161.7488 0004104 265.4169  94.6522 14.98343287 70042","mean_motion":14.98343287,"eccentricity":0.0004104,"inclination_deg":70.0005,"raan_deg":161.7488,"arg_perigee_deg":265.4169,"mean_anomaly_deg":94.6522,"bstar":0.00024308,"rev_number":7004,"period_min":96.106146868598,"perigee_km":569.16245999694,"apogee_km":574.86714459627,"semimajor_km":6950.1518022966,"source":"CELESTRAK","updated_at":"2026-05-25T13:38:19.876539Z"}}